sat.trackr.live / text

‹ back to catalog

STARLINK-5423

NORAD 55670 · 2023-021AU

PAYLOAD ACTIVE UNKNOWN

§ Identity

Operator
Country
US
Launch date
2023-02-17
Launch site
AFWTR
Launch vehicle
Mass (kg)
RCS (m²)

Purposes: comms

External: N2YO · Heavens-Above · Gunter

§ Orbital elements

Epoch: 2026-09-20T21:05:42.485280Z

Period
96.11 min
Inclination
70.0007°
Eccentricity
0.0003148
Mean motion
14.98322186 rev/d
Perigee alt
569.9 km
Apogee alt
574.3 km
Semi-major
6,950.2 km
B*
4.8172e-5
RAAN
32.2487°
Arg perigee
269.5530°
Mean anomaly
90.5268°
Rev number
19,852

§ Raw data

STARLINK-54231 55670U 23021AU  26263.87896395  .00000482  00000+0  48172-4 0  99942 55670  70.0007  32.2487 0003148 269.5530  90.5268 14.98322186198520

JSON: /api/v1/satellites/55670 · /tle

For live sub-satellite position, see the globe view (requires WebGL).

§ Visibility from observer

Set your observer location to see the next 7 days of passes ≥ 10°. The values pass through the URL so the page stays shareable.

No JS? Fill the form by hand. The geolocation button needs JavaScript.